星链-32929 (STARLINK-32929)

导读

STARLINK-32929是美国SpaceX星链计划的一颗卫星,于2025年2月15日发射升空,隶属于美国太空探索技术公司打造的Starlink卫星星座。星链项目旨在构建全球卫星互联网星座,为全球范围内用户提供高速低延迟的宽带互联网接入服务,该卫星是Starlink大规模组网部署中的组成部分,助力星座覆盖能力与服务能力持续拓展。

基本信息
目录编号:
63021
目录名称:
STARLINK-32929
国际标识:
2025-032S
轨道中心:
EARTH
卫星名称:
星链-32929
卫星全名:
星链-32929 (STARLINK-32929)
卫星状态:
在轨 (已飞行484 天)
发射日期:
2025-02-15 UTC
国别 :
美国 (US)
星等 :
--
轨道信息
数据来源 国际轨道数据
星历时间: 2026-06-13T14:09:01+0800
1天前
查看轨道信息
半长轴: 6861.146km
偏心率: 0.0002913
轨道倾角: 42.997°
近地点辐角 274.240°
升交点赤经 156.513°
平近点角 85.812°
近地点: 481.01km
远地点: 485.008km
周期: 94.266分钟
每日圈数: 15.275937
详细信息
固有亮度:
5
最大亮度:
2.5
卫星平台:
Starlink V1.0
覆盖范围:
全球
运营商:
太空探索技术公司
运营商所在国:
美国
制造商(研发单位):
太空探索技术公司
制造商所在国:
美国
使用方式:
暂无
卫星简介
Starlink 计划是 SpaceX 推出的全球卫星互联网项目,通过发射低轨道卫星,为全球尤其是偏远地区提供高速、低延迟的互联网服务。自 2019 年起,Starlink 已部署数千颗卫星,旨在缩小全球数字鸿沟,推动互联网普及。该项目还为军事、航空等行业提供通信支持,带来广泛经济效益。
2D轨道图
3D轨道图
轨道高度分析图
轨道倾角分析图
轨道综合分析图
查看轨道综合分析图